Time,TemperatureF,DewpointF,PressureIn,WindDirection,WindDirectionDegrees,WindSpeedMPH,WindSpeedGustMPH,Humidity,HourlyPrecipIn,Conditions,Clouds,dailyrainin,SoftwareType,DateUTC
2013-04-22 00:02:00,44.0,31.0,30.28,South,180,4.0,10.0,61,0.00,,,0.00,,2013-04-22 05:02:00,
2013-04-22 00:12:00,44.0,32.0,30.28,SW,229,4.0,12.0,62,0.00,,,0.00,,2013-04-22 05:12:00,
2013-04-22 00:22:00,44.0,32.0,30.28,SW,229,4.0,12.0,62,0.00,,,0.00,,2013-04-22 05:22:00,
2013-04-22 00:32:00,43.0,31.0,30.28,SSW,208,4.0,9.0,63,0.00,,,0.00,,2013-04-22 05:32:00,
2013-04-22 00:42:00,43.0,31.0,30.28,SSW,208,4.0,9.0,63,0.00,,,0.00,,2013-04-22 05:42:00,
2013-04-22 00:52:00,43.0,32.0,30.27,SSW,212,3.0,7.0,64,0.00,,,0.00,,2013-04-22 05:52:00,
2013-04-22 01:02:00,43.0,32.0,30.27,South,188,2.0,8.0,64,0.00,,,0.00,,2013-04-22 06:02:00,
2013-04-22 01:12:00,43.0,32.0,30.27,South,188,2.0,8.0,64,0.00,,,0.00,,2013-04-22 06:12:00,
2013-04-22 01:21:00,42.0,31.0,30.27,SSW,193,2.0,5.0,65,0.00,,,0.00,,2013-04-22 06:21:00,
2013-04-22 01:32:00,42.0,31.0,30.27,SSW,206,2.0,6.0,65,0.00,,,0.00,,2013-04-22 06:32:00,
2013-04-22 01:42:00,42.0,31.0,30.27,SSW,206,2.0,6.0,65,0.00,,,0.00,,2013-04-22 06:42:00,
2013-04-22 01:52:00,42.0,31.0,30.27,SSW,207,1.0,5.0,66,0.00,,,0.00,,2013-04-22 06:52:00,
2013-04-22 02:01:00,42.0,31.0,30.27,SSE,155,2.0,5.0,66,0.00,,,0.00,,2013-04-22 07:01:00,
2013-04-22 02:12:00,42.0,31.0,30.27,SSE,155,2.0,5.0,66,0.00,,,0.00,,2013-04-22 07:12:00,
2013-04-22 02:21:00,42.0,31.0,30.26,WSW,240,2.0,6.0,66,0.00,,,0.00,,2013-04-22 07:21:00,
2013-04-22 02:32:00,42.0,32.0,30.26,SSE,155,2.0,5.0,67,0.00,,,0.00,,2013-04-22 07:32:00,
2013-04-22 02:42:00,42.0,32.0,30.26,SSE,155,2.0,5.0,67,0.00,,,0.00,,2013-04-22 07:42:00,
2013-04-22 02:52:00,41.0,31.0,30.26,SW,227,2.0,4.0,67,0.00,,,0.00,,2013-04-22 07:52:00,
2013-04-22 03:01:00,41.0,31.0,30.25,SE,136,2.0,3.0,67,0.00,,,0.00,,2013-04-22 08:01:00,
2013-04-22 03:11:00,41.0,31.0,30.25,SE,136,2.0,3.0,67,0.00,,,0.00,,2013-04-22 08:11:00,
2013-04-22 03:22:00,41.0,31.0,30.25,South,191,3.0,5.0,68,0.00,,,0.00,,2013-04-22 08:22:00,
2013-04-22 03:32:00,41.0,31.0,30.25,South,178,2.0,4.0,68,0.00,,,0.00,,2013-04-22 08:32:00,
2013-04-22 03:42:00,41.0,31.0,30.25,South,178,2.0,4.0,68,0.00,,,0.00,,2013-04-22 08:42:00,
2013-04-22 03:52:00,41.0,31.0,30.24,SSE,148,2.0,6.0,68,0.00,,,0.00,,2013-04-22 08:52:00,
2013-04-22 04:01:00,41.0,31.0,30.24,South,174,2.0,7.0,67,0.00,,,0.00,,2013-04-22 09:01:00,
2013-04-22 04:11:00,41.0,31.0,30.24,South,174,2.0,7.0,67,0.00,,,0.00,,2013-04-22 09:11:00,
2013-04-22 04:21:00,41.0,31.0,30.24,South,190,2.0,5.0,67,0.00,,,0.00,,2013-04-22 09:21:00,
2013-04-22 04:33:00,41.0,31.0,30.24,SE,133,3.0,6.0,67,0.00,,,0.00,,2013-04-22 09:33:00,
2013-04-22 04:42:00,41.0,31.0,30.24,SE,133,3.0,6.0,67,0.00,,,0.00,,2013-04-22 09:42:00,
2013-04-22 04:52:00,41.0,31.0,30.24,SW,217,2.0,6.0,67,0.00,,,0.00,,2013-04-22 09:52:00,
2013-04-22 05:03:00,41.0,31.0,30.24,SSE,158,2.0,6.0,68,0.00,,,0.00,,2013-04-22 10:03:00,
2013-04-22 05:12:00,41.0,31.0,30.24,SSE,158,2.0,6.0,68,0.00,,,0.00,,2013-04-22 10:12:00,
2013-04-22 05:22:00,41.0,31.0,30.24,South,169,2.0,4.0,68,0.00,,,0.00,,2013-04-22 10:22:00,
2013-04-22 05:32:00,40.0,31.0,30.24,SW,224,2.0,4.0,69,0.00,,,0.00,,2013-04-22 10:32:00,
2013-04-22 05:42:00,40.0,31.0,30.24,SW,224,2.0,4.0,69,0.00,,,0.00,,2013-04-22 10:42:00,
2013-04-22 05:52:00,40.0,31.0,30.24,WSW,248,1.0,3.0,70,0.00,,,0.00,,2013-04-22 10:52:00,
2013-04-22 06:02:00,40.0,32.0,30.25,West,264,1.0,3.0,72,0.00,,,0.00,,2013-04-22 11:02:00,
2013-04-22 06:12:00,39.0,31.0,30.25,SSE,149,0.0,1.0,72,0.00,,,0.00,,2013-04-22 11:12:00,
2013-04-22 06:22:00,39.0,31.0,30.25,SSE,149,0.0,1.0,72,0.00,,,0.00,,2013-04-22 11:22:00,
2013-04-22 06:32:00,39.0,31.0,30.24,SSE,155,0.0,2.0,73,0.00,,,0.00,,2013-04-22 11:32:00,
2013-04-22 06:42:00,39.0,31.0,30.24,SSE,155,0.0,2.0,73,0.00,,,0.00,,2013-04-22 11:42:00,
2013-04-22 06:52:00,38.0,31.0,30.24,ESE,113,0.0,1.0,75,0.00,,,0.00,,2013-04-22 11:52:00,
2013-04-22 07:01:00,37.0,30.0,30.24,ESE,113,1.0,1.0,77,0.00,,,0.00,,2013-04-22 12:01:00,
2013-04-22 07:12:00,39.0,32.0,30.24,SE,124,0.0,1.0,75,0.00,,,0.00,,2013-04-22 12:12:00,
2013-04-22 07:21:00,39.0,32.0,30.24,SE,124,0.0,1.0,75,0.00,,,0.00,,2013-04-22 12:21:00,
2013-04-22 07:31:00,41.0,32.0,30.24,SW,217,1.0,3.0,71,0.00,,,0.00,,2013-04-22 12:31:00,
2013-04-22 07:42:00,41.0,32.0,30.24,SW,217,1.0,3.0,71,0.00,,,0.00,,2013-04-22 12:42:00,
2013-04-22 07:52:00,44.0,33.0,30.24,SSE,167,3.0,7.0,64,0.00,,,0.00,,2013-04-22 12:52:00,
2013-04-22 08:01:00,44.0,32.0,30.24,SE,131,3.0,8.0,63,0.00,,,0.00,,2013-04-22 13:01:00,
2013-04-22 08:11:00,44.0,32.0,30.24,SE,131,3.0,8.0,63,0.00,,,0.00,,2013-04-22 13:11:00,
2013-04-22 08:22:00,45.0,33.0,30.24,South,170,2.0,9.0,62,0.00,,,0.00,,2013-04-22 13:22:00,
2013-04-22 08:31:00,46.0,33.0,30.24,SSW,212,1.0,7.0,61,0.00,,,0.00,,2013-04-22 13:31:00,
2013-04-22 08:41:00,46.0,33.0,30.24,SSW,212,1.0,7.0,61,0.00,,,0.00,,2013-04-22 13:41:00,
2013-04-22 08:53:00,47.0,34.0,30.24,SE,131,2.0,8.0,60,0.00,,,0.00,,2013-04-22 13:53:00,
2013-04-22 09:02:00,46.0,32.0,30.24,SE,141,3.0,8.0,59,0.00,,,0.00,,2013-04-22 14:02:00,
2013-04-22 09:11:00,48.0,34.0,30.23,West,269,3.0,9.0,59,0.00,,,0.00,,2013-04-22 14:11:00,
2013-04-22 09:21:00,48.0,34.0,30.23,West,269,3.0,9.0,59,0.00,,,0.00,,2013-04-22 14:21:00,
2013-04-22 09:33:00,49.0,35.0,30.23,SE,136,5.0,11.0,58,0.00,,,0.00,,2013-04-22 14:33:00,
2013-04-22 09:42:00,49.0,35.0,30.23,SE,136,5.0,11.0,58,0.00,,,0.00,,2013-04-22 14:42:00,
2013-04-22 09:52:00,51.0,35.0,30.23,SE,130,5.0,9.0,54,0.00,,,0.00,,2013-04-22 14:52:00,
2013-04-22 10:01:00,51.0,34.0,30.23,SE,132,5.0,10.0,53,0.00,,,0.00,,2013-04-22 15:01:00,
2013-04-22 10:11:00,51.0,34.0,30.23,SE,132,5.0,10.0,53,0.00,,,0.00,,2013-04-22 15:11:00,
2013-04-22 10:22:00,53.0,34.0,30.22,SE,139,6.0,11.0,49,0.00,,,0.00,,2013-04-22 15:22:00,
2013-04-22 10:33:00,55.0,36.0,30.22,South,186,4.0,8.0,48,0.00,,,0.00,,2013-04-22 15:33:00,
2013-04-22 10:43:00,55.0,36.0,30.22,South,186,4.0,8.0,48,0.00,,,0.00,,2013-04-22 15:43:00,
2013-04-22 10:53:00,56.0,36.0,30.22,South,176,4.0,10.0,47,0.00,,,0.00,,2013-04-22 15:53:00,
2013-04-22 11:02:00,56.0,36.0,30.22,South,183,6.0,10.0,47,0.00,,,0.00,,2013-04-22 16:02:00,
2013-04-22 11:12:00,56.0,36.0,30.22,South,183,6.0,10.0,47,0.00,,,0.00,,2013-04-22 16:12:00,
2013-04-22 11:23:00,57.0,36.0,30.21,SSW,198,3.0,8.0,46,0.00,,,0.00,,2013-04-22 16:23:00,
2013-04-22 11:33:00,58.0,36.0,30.20,WSW,249,5.0,9.0,44,0.00,,,0.00,,2013-04-22 16:33:00,
2013-04-22 11:42:00,58.0,36.0,30.20,WSW,249,5.0,9.0,44,0.00,,,0.00,,2013-04-22 16:42:00,
2013-04-22 11:52:00,59.0,37.0,30.20,SW,232,3.0,14.0,44,0.00,,,0.00,,2013-04-22 16:52:00,
2013-04-22 12:02:00,59.0,37.0,30.20,SSE,158,5.0,11.0,44,0.00,,,0.00,,2013-04-22 17:02:00,
2013-04-22 12:12:00,59.0,37.0,30.20,SSE,158,5.0,11.0,44,0.00,,,0.00,,2013-04-22 17:12:00,
2013-04-22 12:22:00,60.0,38.0,30.20,SW,236,5.0,9.0,44,0.00,,,0.00,,2013-04-22 17:22:00,
2013-04-22 12:32:00,60.0,38.0,30.19,SE,142,5.0,11.0,44,0.00,,,0.00,,2013-04-22 17:32:00,
2013-04-22 12:42:00,60.0,38.0,30.19,SE,142,5.0,11.0,44,0.00,,,0.00,,2013-04-22 17:42:00,
2013-04-22 12:52:00,62.0,40.0,30.19,SW,221,4.0,7.0,44,0.00,,,0.00,,2013-04-22 17:52:00,
2013-04-22 13:01:00,62.0,39.0,30.18,SW,221,5.0,10.0,42,0.00,,,0.00,,2013-04-22 18:01:00,
2013-04-22 13:12:00,62.0,39.0,30.18,SW,221,5.0,10.0,42,0.00,,,0.00,,2013-04-22 18:12:00,
2013-04-22 13:21:00,63.0,39.0,30.17,SE,124,3.0,10.0,41,0.00,,,0.00,,2013-04-22 18:21:00,
2013-04-22 13:32:00,63.0,37.0,30.16,SSW,212,6.0,12.0,38,0.00,,,0.00,,2013-04-22 18:32:00,
2013-04-22 13:42:00,63.0,37.0,30.16,SSW,212,6.0,12.0,38,0.00,,,0.00,,2013-04-22 18:42:00,
2013-04-22 13:52:00,64.0,39.0,30.16,West,281,5.0,14.0,39,0.00,,,0.00,,2013-04-22 18:52:00,
2013-04-22 14:01:00,64.0,38.0,30.15,WSW,239,5.0,9.0,38,0.00,,,0.00,,2013-04-22 19:01:00,
2013-04-22 14:12:00,64.0,38.0,30.15,WSW,239,5.0,9.0,38,0.00,,,0.00,,2013-04-22 19:12:00,
2013-04-22 14:21:00,64.0,37.0,30.14,South,186,6.0,14.0,36,0.00,,,0.00,,2013-04-22 19:21:00,
2013-04-22 14:32:00,64.0,37.0,30.14,SE,131,4.0,11.0,36,0.00,,,0.00,,2013-04-22 19:32:00,
2013-04-22 14:42:00,64.0,37.0,30.14,SE,131,4.0,11.0,36,0.00,,,0.00,,2013-04-22 19:42:00,
2013-04-22 14:53:00,65.0,37.0,30.13,SW,231,7.0,9.0,36,0.00,,,0.00,,2013-04-22 19:53:00,
2013-04-22 15:02:00,65.0,41.0,30.12,NE,52,7.0,15.0,41,0.00,,,0.00,,2013-04-22 20:02:00,
2013-04-22 15:11:00,65.0,41.0,30.12,NE,52,7.0,15.0,41,0.00,,,0.00,,2013-04-22 20:11:00,
2013-04-22 15:22:00,63.0,41.0,30.12,SE,132,7.0,11.0,44,0.00,,,0.00,,2013-04-22 20:22:00,
2013-04-22 15:32:00,63.0,40.0,30.11,ESE,102,6.0,10.0,43,0.00,,,0.00,,2013-04-22 20:32:00,
2013-04-22 15:42:00,63.0,40.0,30.11,ESE,102,6.0,10.0,43,0.00,,,0.00,,2013-04-22 20:42:00,
2013-04-22 15:52:00,62.0,40.0,30.10,East,98,4.0,13.0,44,0.00,,,0.00,,2013-04-22 20:52:00,
2013-04-22 16:02:00,61.0,38.0,30.10,SSE,158,6.0,13.0,43,0.00,,,0.00,,2013-04-22 21:02:00,
2013-04-22 16:11:00,61.0,38.0,30.09,ESE,111,6.0,17.0,43,0.00,,,0.00,,2013-04-22 21:11:00,
2013-04-22 16:21:00,61.0,38.0,30.09,ESE,111,6.0,17.0,43,0.00,,,0.00,,2013-04-22 21:21:00,
2013-04-22 16:32:00,60.0,36.0,30.09,ESE,109,8.0,12.0,40,0.00,,,0.00,,2013-04-22 21:32:00,
2013-04-22 16:42:00,60.0,36.0,30.09,ESE,109,8.0,12.0,40,0.00,,,0.00,,2013-04-22 21:42:00,
2013-04-22 16:53:00,61.0,37.0,30.09,SSW,197,7.0,16.0,41,0.00,,,0.00,,2013-04-22 21:53:00,
2013-04-22 17:02:00,60.0,36.0,30.09,SSW,204,8.0,15.0,40,0.00,,,0.00,,2013-04-22 22:02:00,
2013-04-22 17:12:00,60.0,36.0,30.09,SSW,204,8.0,15.0,40,0.00,,,0.00,,2013-04-22 22:12:00,
2013-04-22 17:22:00,60.0,36.0,30.08,SE,136,5.0,17.0,40,0.00,,,0.00,,2013-04-22 22:22:00,
2013-04-22 17:33:00,60.0,36.0,30.08,SE,143,6.0,14.0,40,0.00,,,0.00,,2013-04-22 22:33:00,
2013-04-22 17:42:00,60.0,36.0,30.08,SE,143,6.0,14.0,40,0.00,,,0.00,,2013-04-22 22:42:00,
2013-04-22 17:52:00,58.0,33.0,30.07,SE,143,7.0,15.0,39,0.00,,,0.00,,2013-04-22 22:52:00,
2013-04-22 18:02:00,58.0,33.0,30.06,ENE,75,5.0,11.0,38,0.00,,,0.00,,2013-04-22 23:02:00,
2013-04-22 18:11:00,58.0,33.0,30.06,ESE,118,5.0,14.0,39,0.00,,,0.00,,2013-04-22 23:11:00,
2013-04-22 18:21:00,58.0,33.0,30.06,ESE,118,5.0,14.0,39,0.00,,,0.00,,2013-04-22 23:21:00,
2013-04-22 18:32:00,59.0,34.0,30.06,East,84,5.0,12.0,39,0.00,,,0.00,,2013-04-22 23:32:00,
2013-04-22 18:42:00,59.0,34.0,30.06,East,84,5.0,12.0,39,0.00,,,0.00,,2013-04-22 23:42:00,
2013-04-22 18:52:00,58.0,33.0,30.06,SSE,160,6.0,8.0,39,0.00,,,0.00,,2013-04-22 23:52:00,
2013-04-22 19:02:00,58.0,34.0,30.05,SE,146,5.0,10.0,40,0.00,,,0.00,,2013-04-23 00:02:00,
2013-04-22 19:12:00,58.0,34.0,30.05,SE,146,5.0,10.0,40,0.00,,,0.00,,2013-04-23 00:12:00,
2013-04-22 19:21:00,57.0,34.0,30.05,ESE,113,4.0,8.0,42,0.00,,,0.00,,2013-04-23 00:21:00,
2013-04-22 19:31:00,56.0,33.0,30.05,East,91,3.0,7.0,42,0.00,,,0.00,,2013-04-23 00:31:00,
2013-04-22 19:42:00,56.0,33.0,30.05,East,91,3.0,7.0,42,0.00,,,0.00,,2013-04-23 00:42:00,
2013-04-22 19:52:00,56.0,34.0,30.04,SE,133,4.0,9.0,43,0.00,,,0.00,,2013-04-23 00:52:00,
2013-04-22 20:01:00,55.0,33.0,30.04,East,92,2.0,5.0,44,0.00,,,0.00,,2013-04-23 01:01:00,
2013-04-22 20:11:00,55.0,33.0,30.04,East,92,2.0,5.0,44,0.00,,,0.00,,2013-04-23 01:11:00,
2013-04-22 20:21:00,54.0,34.0,30.05,ESE,103,2.0,4.0,46,0.00,,,0.00,,2013-04-23 01:21:00,
2013-04-22 20:32:00,54.0,34.0,30.05,ESE,103,2.0,4.0,46,0.00,,,0.00,,2013-04-23 01:32:00,
2013-04-22 20:42:00,54.0,34.0,30.05,ESE,103,2.0,4.0,46,0.00,,,0.00,,2013-04-23 01:42:00,
2013-04-22 20:52:00,53.0,32.0,30.04,ESE,121,4.0,8.0,45,0.00,,,0.00,,2013-04-23 01:52:00,
2013-04-22 21:01:00,53.0,33.0,30.04,SSE,160,4.0,8.0,46,0.00,,,0.00,,2013-04-23 02:01:00,
2013-04-22 21:12:00,53.0,33.0,30.04,SSE,160,4.0,8.0,46,0.00,,,0.00,,2013-04-23 02:12:00,
2013-04-22 21:21:00,53.0,33.0,30.04,ESE,122,4.0,12.0,47,0.00,,,0.00,,2013-04-23 02:21:00,
2013-04-22 21:32:00,53.0,33.0,30.04,ESE,102,4.0,9.0,47,0.00,,,0.00,,2013-04-23 02:32:00,
2013-04-22 21:42:00,53.0,33.0,30.04,ESE,102,4.0,9.0,47,0.00,,,0.00,,2013-04-23 02:42:00,
2013-04-22 21:52:00,52.0,33.0,30.05,SSW,197,3.0,11.0,48,0.00,,,0.00,,2013-04-23 02:52:00,
2013-04-22 22:01:00,52.0,33.0,30.05,East,80,3.0,9.0,49,0.00,,,0.00,,2013-04-23 03:01:00,
2013-04-22 22:11:00,52.0,33.0,30.05,East,80,3.0,9.0,49,0.00,,,0.00,,2013-04-23 03:11:00,
2013-04-22 22:21:00,52.0,34.0,30.04,East,98,2.0,6.0,50,0.00,,,0.00,,2013-04-23 03:21:00,
2013-04-22 22:33:00,51.0,33.0,30.05,SE,131,3.0,8.0,50,0.00,,,0.00,,2013-04-23 03:33:00,
2013-04-22 22:43:00,51.0,33.0,30.05,SE,131,3.0,8.0,50,0.00,,,0.00,,2013-04-23 03:43:00,
2013-04-22 22:53:00,51.0,33.0,30.04,SE,143,4.0,8.0,50,0.00,,,0.00,,2013-04-23 03:53:00,
2013-04-22 23:03:00,52.0,34.0,30.03,SE,135,4.0,8.0,50,0.00,,,0.00,,2013-04-23 04:03:00,
2013-04-22 23:12:00,52.0,34.0,30.03,SE,135,4.0,8.0,50,0.00,,,0.00,,2013-04-23 04:12:00,
2013-04-22 23:23:00,52.0,34.0,30.03,South,170,5.0,8.0,51,0.00,,,0.00,,2013-04-23 04:23:00,
2013-04-22 23:33:00,52.0,35.0,30.03,SSW,212,3.0,8.0,52,0.00,,,0.00,,2013-04-23 04:33:00,
2013-04-22 23:43:00,52.0,35.0,30.03,SSW,212,3.0,8.0,52,0.00,,,0.00,,2013-04-23 04:43:00,
2013-04-22 23:53:00,51.0,35.0,30.03,SSE,150,2.0,6.0,54,0.00,,,0.00,,2013-04-23 04:53:00,